Location: Gaast
(52.9002°N, 5.8891°E)
Time: 15:11:41
(UTC+00:00)

ACS3 Solar Sail - Pass Details

Date: 22 January 2026
Orbit: 898 x 968 km, 97.2° (Epoch: 17 February)

Event Time Altitude Azimuth Distance (km) Brightness Sun altitude
Rises 02:42:22 0° 11° (N) 3,644 5.2 -42.8°
Reaches altitude 10° 02:44:52 10° 8° (N) 2,683 4.4 -42.5°
Enters shadow 02:45:09 11° 8° (N) 2,581 4.3 -42.5°
